TIANMU-1 13

Last updated on Thu Oct 30 2025 00:02:23 GMT+0000 (Coordinated Universal Time)

1 58647U 23205C 25302.49142140 .00008561 00000+0 35876-3 0 9990 2 58647 97.3673 322.9093 0009720 68.8487 291.3788 15.23719980102336
UTC large
Height (km)
Speed (km/s)
/
Latitude / Longitude
Inclination (degrees)
Orbital Period (minutes)
Azimuth
Elevation
Range (km)
Doppler Factor

Next 0 passes for location: London (51.5072 / 0.1276)

Sorry there are no passes over London.